Hurghada, Egypt

10:00 AM EET on June 29, 2017 (GMT +0200)
Hurghada

Weather History for HEGN - November, 2012

Change the Weather History Date:

Saturday, November 24, 2012

  Actual Average Record
Temperature  
Mean Temperature 70 °F -  
Max Temperature 77 °F 72 °F 90 °F (2013)
Min Temperature 64 °F 56 °F 55 °F (2004)
Cooling Degree Days 6    
Growing Degree Days 20 (Base 50)    
Moisture  
Dew Point 54 °F    
Average Humidity 55    
Maximum Humidity 78    
Minimum Humidity 31    
Precipitation  
Precipitation 0.00 in - - ()
Sea Level Pressure  
Sea Level Pressure 29.97 in    
Wind  
Wind Speed 13 mph ()    
Max Wind Speed 20 mph    
Max Gust Speed -    
Visibility 6.0 miles    
Events      
Averages and records for this station are not official NWS values.
T = Trace of Precipitation, MM = Missing Value Source: Averaged Metar Reports

Daily Weather History Graph

Daily Weather History Graph

Search for Another Location

Airport or City:

Trip Planner

Search our weather history database for the weather conditions in past years. The results will help you decide how hot, cold, wet, or windy it might be!

Date:

Astronomy

Nov. 24, 2012 Rise Set
Actual Time 6:12 AM EET 4:51 PM EET
Civil Twilight 5:47 AM EET 5:16 PM EET
Nautical Twilight 5:18 AM EET 5:44 PM EET
Astronomical Twilight 4:50 AM EET 6:12 PM EET
Moon 2:10 PM EET (11/24) 2:26 AM EET (11/24)
Length of Visible Light 11h 29m
Length of Day
10h 39m
Waxing Gibbous, 85% of the Moon is Illuminated
Nov 24
Waxing Gibbous
Nov 28
Full
Dec 6
Last Quarter
Dec 13
New
Dec 20
First Quarter

Hourly Weather History & Observations

Time (EET) Temp. Dew Point Humidity Pressure Visibility Wind Dir Wind Speed Gust Speed Precip Events Conditions
12:00 AM 68.0 °F 55.4 °F 64% 29.98 in - WNW 13.8 mph - N/A   Clear
1:00 AM 68.0 °F 57.2 °F 68% 29.98 in - WNW 16.1 mph - N/A   Clear
2:00 AM 68 °F 58 °F 64% 29.99 in 6 mi WNW 17.3 mph - -  
2:00 AM 68.0 °F 59.0 °F 73% 29.98 in - WNW 17.3 mph - N/A   Clear
3:00 AM 66.2 °F 59.0 °F 78% 29.98 in - WNW 16.1 mph - N/A   Clear
4:00 AM 66.2 °F 57.2 °F 73% 29.98 in - WNW 15.0 mph - N/A   Clear
5:00 AM 66.2 °F 55.4 °F 68% 29.98 in - NW 12.7 mph - N/A   Clear
6:00 AM 64.4 °F 55.4 °F 73% 30.01 in - WNW 9.2 mph - N/A   Clear
7:00 AM 64.4 °F 55.4 °F 73% 30.01 in - NW 10.4 mph - N/A   Clear
8:00 AM 68 °F 56 °F 58% 30.01 in 6 mi NW 18.4 mph - -  
8:00 AM 68.0 °F 57.2 °F 68% 30.01 in - NW 18.4 mph - N/A   Clear
9:00 AM 73.4 °F 57.2 °F 57% 30.04 in - North 19.6 mph - N/A   Clear
10:00 AM 75.2 °F 53.6 °F 47% 30.04 in - NW 16.1 mph - N/A   Clear
11:00 AM 77.0 °F 53.6 °F 44% 30.01 in - North 11.5 mph - N/A   Clear
12:00 PM 78.8 °F 51.8 °F 39% 29.95 in 6.2 mi North 13.8 mph - N/A   Scattered Clouds
1:00 PM 78.8 °F 50.0 °F 36% 29.95 in - North 13.8 mph - N/A   Clear
2:00 PM 78 °F 53 °F 31% 29.94 in 6 mi North 13.8 mph - -   Mostly Cloudy
2:00 PM 78.8 °F 53.6 °F 42% 29.92 in - North 13.8 mph - N/A   Clear
3:00 PM 77.0 °F 55.4 °F 47% 29.92 in - North 16.1 mph - N/A   Clear
4:00 PM 75.2 °F 57.2 °F 53% 29.92 in - NNE 12.7 mph - N/A   Clear
5:00 PM 75.2 °F 57.2 °F 53% 29.92 in - NNE 9.2 mph - N/A   Clear
6:00 PM 73.4 °F 55.4 °F 53% 29.95 in - North 11.5 mph - N/A   Clear
7:00 PM 71.6 °F 57.2 °F 60% 29.95 in - North 11.5 mph - N/A   Clear
8:00 PM 71 °F 54 °F 45% 29.96 in 6 mi Calm Calm - -  
8:00 PM 69.8 °F 51.8 °F 53% 29.98 in - NW 11.5 mph - N/A   Clear
9:00 PM 68.0 °F 42.8 °F 40% 29.98 in - NW 9.2 mph - N/A   Clear
10:00 PM 66.2 °F 42.8 °F 43% 29.98 in - WNW 11.5 mph - N/A   Clear
11:00 PM 66.2 °F 42.8 °F 43% 29.95 in - West 13.8 mph - N/A   Clear